Location: Bruderhein
(53.8035°N, 112.9265°W)
Time: 01:12:36
(UTC+00:00)

STRAND 1 - Pass Details

Date: 06 April 2023
Orbit: 767 x 779 km, 98.4° (Epoch: 31 May)

Event Time Altitude Azimuth Distance (km) Brightness Sun altitude
Rises 03:54:03 0° 10° (N) 3,254 ? -14.3°
Reaches altitude 10° 03:56:38 10° 359° (N) 2,322 ? -14.6°
Maximum altitude 04:00:55 28° 302° (WNW) 1,421 ? -15.1°
Drops below altitude 10° 04:05:11 10° 245° (WSW) 2,309 ? -15.7°
Sets 04:07:45 0° 233° (SW) 3,232 ? -16.0°
